Find Starlink 31645

NORAD ID: 59264 Int'l Des: 2024-050 Owner: SPXS Country: US Constellation: starlink operational
LEOCIRCULAR

Current View

Loading 3D Globe...

About Starlink 31645

Starlink 31645 (NORAD 59264) is a starlink constellation satellite (v2 mini) launched Mar 19, 2024 by SPXS of US. It operates in LEO, CIRCULAR orbit with a mass of 730.00 kg.

About Starlink 31645

Description loading...

Upcoming Passes

Passes for default location (London). Set your location on the main map for personalized predictions.

Altitude History

Loading altitude history...

Two-Line Element Set

1 59264U 24050L 26177.87475581 .00025496 00000-0 87040-3 0 9993
2 59264 53.1599 33.9574 0000979 84.5584 275.5528 15.30184612127263
Epoch: Jun 26, 2026 • Age: 14 hours

Current Status

Altitude 476.5 km
Velocity 7.63 km/s
Sub-Earth Point 30.69°N, 27.25°W
Launch Date Mar 19, 2024
Age 2.2 years
Type internet

Technical Details

Classification Payload
Mass 730.00 kg
Dry Mass 700.00 kg
Total Mass 730.00 kg
Length 0.30 m
Diameter 4.10 m
Span 29.00 m
Shape Box + pan
Manufacturer SPXS
Bus Type Starlink V2M
Phase Status In Orbit
Owner/State SPXS/US

Most Searched